,,,PA_Meas_PMT16A,,PR_Meas_QMR101_102,,RH_Meas_QMH101,,SR_Meas_QMS101,,TA_Meas_QMH101,,GenWind,,GenWind,
date,time,status,PA,status,PR,status,RH,status,SR,status,TA,status,DirAvg,status,SpdAvg,
2010-01-24, 00:00:04,VALID,1012.15,VALID,0,VALID,93.1257,VALID,0,VALID,23.6161,VALID,109,VALID,0,
2010-01-24, 00:01:04,VALID,1012.13,VALID,0,VALID,93.0952,VALID,0,VALID,23.6143,VALID,118,VALID,0,
2010-01-24, 00:02:04,VALID,1012.11,VALID,0,VALID,93.0952,VALID,0.105969,VALID,23.6356,VALID,120,VALID,0,
2010-01-24, 00:03:04,VALID,1012.11,VALID,0,VALID,93.1105,VALID,0.105969,VALID,23.6143,VALID,123,VALID,0,
2010-01-24, 00:04:04,VALID,1012.09,VALID,0,VALID,93.141,VALID,0.105969,VALID,23.6161,VALID,128,VALID,0,
2010-01-24, 00:05:04,VALID,1012.07,VALID,0,VALID,93.1715,VALID,0.105969,VALID,23.5771,VALID,138,VALID,0.767969,
2010-01-24, 00:06:04,VALID,1012.03,VALID,0,VALID,93.1791,VALID,0.105969,VALID,23.5753,VALID,165,VALID,0.655078,
2010-01-24, 00:07:04,VALID,1012.03,VALID,0,VALID,93.1791,VALID,0.105969,VALID,23.5771,VALID,167,VALID,0.329297,
2010-01-24, 00:08:04,VALID,1012.03,VALID,0,VALID,93.2096,VALID,0.105969,VALID,23.5558,VALID,167,VALID,0,
2010-01-24, 00:09:04,VALID,1012.01,VALID,0,VALID,93.1943,VALID,0.105969,VALID,23.5363,VALID,172,VALID,0.279687,
2010-01-24, 00:10:04,VALID,1012.01,VALID,0,VALID,93.202,VALID,0.105969,VALID,23.5169,VALID,171,VALID,0.225781,
2010-01-24, 00:11:04,VALID,1012,VALID,0,VALID,93.1943,VALID,0.105969,VALID,23.5363,VALID,171,VALID,0,
2010-01-24, 00:12:04,VALID,1011.99,VALID,0,VALID,93.1791,VALID,0.105969,VALID,23.5363,VALID,179,VALID,0.376563,
2010-01-24, 00:13:04,VALID,1011.99,VALID,0,VALID,93.1562,VALID,0,VALID,23.5576,VALID,179,VALID,0.473047,
2010-01-24, 00:14:04,VALID,1012.01,VALID,0,VALID,93.1791,VALID,0,VALID,23.5381,VALID,202,VALID,0.483594,
2010-01-24, 00:15:04,VALID,1011.98,VALID,0,VALID,93.1715,VALID,0,VALID,23.5186,VALID,178,VALID,0.951953,
2010-01-24, 00:16:04,VALID,1012.01,VALID,0,VALID,93.1715,VALID,0,VALID,23.5399,VALID,167,VALID,0.748047,
2010-01-24, 00:17:04,VALID,1012.02,VALID,0,VALID,93.1867,VALID,0,VALID,23.5381,VALID,167,VALID,0.575,
2010-01-24, 00:18:04,VALID,1011.98,VALID,0,VALID,93.1867,VALID,0,VALID,23.5399,VALID,167,VALID,0.455859,
2010-01-24, 00:19:04,VALID,1011.97,VALID,0,VALID,93.202,VALID,0,VALID,23.5186,VALID,167,VALID,0.405469,
2010-01-24, 00:20:04,VALID,1011.94,VALID,0,VALID,93.1715,VALID,0,VALID,23.5594,VALID,167,VALID,0.132422,
2010-01-24, 00:21:04,VALID,1011.91,VALID,0,VALID,93.1638,VALID,0,VALID,23.5399,VALID,167,VALID,0.0769531,
2010-01-24, 00:22:04,VALID,1011.9,VALID,0,VALID,93.1562,VALID,0,VALID,23.5399,VALID,168,VALID,0.369531,
2010-01-24, 00:23:04,VALID,1011.89,VALID,0,VALID,93.1715,VALID,0,VALID,23.5399,VALID,168,VALID,0.255078,
2010-01-24, 00:24:04,VALID,1011.85,VALID,0,VALID,93.1638,VALID,0,VALID,23.5186,VALID,168,VALID,0.341406,
2010-01-24, 00:25:04,VALID,1011.85,VALID,0,VALID,93.1638,VALID,0,VALID,23.5186,VALID,168,VALID,0.0558594,
2010-01-24, 00:26:04,VALID,1011.83,VALID,0,VALID,93.1486,VALID,0,VALID,23.5186,VALID,168,VALID,0.00117188,
2010-01-24, 00:27:04,VALID,1011.83,VALID,0,VALID,93.141,VALID,0,VALID,23.5381,VALID,168,VALID,0.15625,
2010-01-24, 00:28:04,VALID,1011.78,VALID,0,VALID,93.1333,VALID,0,VALID,23.5576,VALID,168,VALID,0.703125,
2010-01-24, 00:29:04,VALID,1011.76,VALID,0,VALID,93.1791,VALID,0,VALID,23.5169,VALID,137,VALID,0.760547,
2010-01-24, 00:30:04,VALID,1011.72,VALID,0,VALID,93.1943,VALID,0,VALID,23.5363,VALID,149,VALID,0.439453,
2010-01-24, 00:31:04,VALID,1011.7,VALID,0,VALID,93.1715,VALID,0,VALID,23.5363,VALID,149,VALID,0.258984,
2010-01-24, 00:32:04,VALID,1011.67,VALID,0,VALID,93.1638,VALID,0,VALID,23.5771,VALID,149,VALID,0.120312,
2010-01-24, 00:33:04,VALID,1011.64,VALID,0,VALID,93.1486,VALID,0,VALID,23.5966,VALID,142,VALID,0.254297,
2010-01-24, 00:34:04,VALID,1011.64,VALID,0,VALID,93.1562,VALID,0.105969,VALID,23.5948,VALID,124,VALID,0.471484,
2010-01-24, 00:35:04,VALID,1011.63,VALID,0,VALID,93.1791,VALID,0.105969,VALID,23.5753,VALID,126,VALID,0.389062,
2010-01-24, 00:36:04,VALID,1011.59,VALID,0,VALID,93.1257,VALID,0,VALID,23.6161,VALID,126,VALID,0.161328,
2010-01-24, 00:37:04,VALID,1011.59,VALID,0,VALID,93.1486,VALID,0,VALID,23.6161,VALID,117,VALID,0.6875,
2010-01-24, 00:38:04,VALID,1011.55,VALID,0,VALID,93.1638,VALID,0,VALID,23.6143,VALID,117,VALID,0.352734,
2010-01-24, 00:39:04,VALID,1011.54,VALID,0,VALID,93.1257,VALID,0,VALID,23.655,VALID,117,VALID,0,
2010-01-24, 00:40:04,VALID,1011.51,VALID,0,VALID,93.1638,VALID,0.105969,VALID,23.6338,VALID,116,VALID,0,
2010-01-24, 00:41:04,VALID,1011.48,VALID,0,VALID,93.1333,VALID,0,VALID,23.655,VALID,128,VALID,0.890234,
2010-01-24, 00:42:04,VALID,1011.46,VALID,0,VALID,93.1562,VALID,0.105969,VALID,23.6338,VALID,135,VALID,0.396094,
2010-01-24, 00:43:04,VALID,1011.45,VALID,0,VALID,93.1867,VALID,0,VALID,23.6745,VALID,135,VALID,0.591797,
2010-01-24, 00:44:04,VALID,1011.45,VALID,0,VALID,93.1943,VALID,0.105969,VALID,23.6745,VALID,106,VALID,0.807422,
2010-01-24, 00:45:04,VALID,1011.46,VALID,0,VALID,93.2172,VALID,0,VALID,23.694,VALID,118,VALID,0.428516,
2010-01-24, 00:46:04,VALID,1011.47,VALID,0,VALID,93.1791,VALID,0,VALID,23.6922,VALID,110,VALID,0.692578,
2010-01-24, 00:47:05,VALID,1011.46,VALID,0,VALID,93.1867,VALID,0.105969,VALID,23.7135,VALID,95,VALID,0.882422,
2010-01-24, 00:48:05,VALID,1011.46,VALID,0,VALID,93.2096,VALID,0,VALID,23.733,VALID,108,VALID,0.689062,
2010-01-24, 00:49:05,VALID,1011.48,VALID,0,VALID,93.2325,VALID,0.105969,VALID,23.7135,VALID,94,VALID,0.747656,
2010-01-24, 00:50:05,VALID,1011.5,VALID,0,VALID,93.2325,VALID,0,VALID,23.7135,VALID,79,VALID,0.360547,
2010-01-24, 00:51:05,VALID,1011.49,VALID,0,VALID,93.202,VALID,0,VALID,23.7135,VALID,79,VALID,0.163672,
2010-01-24, 00:52:05,VALID,1011.49,VALID,0,VALID,93.2477,VALID,0,VALID,23.694,VALID,63,VALID,0.535547,
2010-01-24, 00:53:05,VALID,1011.45,VALID,0,VALID,93.263,VALID,0,VALID,23.694,VALID,63,VALID,0.164063,
2010-01-24, 00:54:05,VALID,1011.45,VALID,0,VALID,93.2401,VALID,0,VALID,23.694,VALID,63,VALID,0.135547,
2010-01-24, 00:55:05,VALID,1011.42,VALID,0,VALID,93.263,VALID,0,VALID,23.655,VALID,62,VALID,0.0410156,
2010-01-24, 00:56:05,VALID,1011.39,VALID,0,VALID,93.2553,VALID,0,VALID,23.655,VALID,61,VALID,0.239063,
2010-01-24, 00:57:05,VALID,1011.41,VALID,0,VALID,93.2858,VALID,0,VALID,23.6356,VALID,32,VALID,0.683984,
2010-01-24, 00:58:05,VALID,1011.39,VALID,0,VALID,93.2553,VALID,0,VALID,23.6161,VALID,32,VALID,0.251563,
2010-01-24, 00:59:05,VALID,1011.39,VALID,0,VALID,93.2706,VALID,0,VALID,23.6161,VALID,25,VALID,0.619531,
2010-01-24, 01:00:05,VALID,1011.36,VALID,0,VALID,93.2553,VALID,0,VALID,23.6161,VALID,25,VALID,0.521484,
2010-01-24, 01:01:05,VALID,1011.34,VALID,0,VALID,93.2858,VALID,0,VALID,23.5771,VALID,23,VALID,0.358203,
2010-01-24, 01:02:05,VALID,1011.33,VALID,0,VALID,93.2935,VALID,0,VALID,23.5576,VALID,14,VALID,0.163281,
2010-01-24, 01:03:05,VALID,1011.32,VALID,0,VALID,93.2782,VALID,0,VALID,23.5169,VALID,14,VALID,0.275391,
2010-01-24, 01:04:05,VALID,1011.31,VALID,0,VALID,93.2935,VALID,0,VALID,23.5186,VALID,14,VALID,0,
2010-01-24, 01:05:05,VALID,1011.29,VALID,0,VALID,93.2706,VALID,0,VALID,23.5186,VALID,10,VALID,0,
2010-01-24, 01:06:05,VALID,1011.31,VALID,0,VALID,93.2706,VALID,0,VALID,23.4992,VALID,1,VALID,0.223047,
2010-01-24, 01:07:05,VALID,1011.31,VALID,0,VALID,93.2401,VALID,0,VALID,23.5186,VALID,1,VALID,0.246484,
2010-01-24, 01:08:05,VALID,1011.27,VALID,0,VALID,93.2096,VALID,0,VALID,23.4992,VALID,1,VALID,0.0328125,
2010-01-24, 01:09:05,VALID,1011.28,VALID,0,VALID,93.2477,VALID,0,VALID,23.4797,VALID,1,VALID,0.16875,
2010-01-24, 01:10:05,VALID,1011.25,VALID,0,VALID,93.2325,VALID,0,VALID,23.4602,VALID,1,VALID,0,
2010-01-24, 01:11:05,VALID,1011.23,VALID,0,VALID,93.202,VALID,0.105969,VALID,23.4584,VALID,1,VALID,0,
2010-01-24, 01:12:05,VALID,1011.21,VALID,0,VALID,93.202,VALID,0,VALID,23.4797,VALID,1,VALID,0,
2010-01-24, 01:13:05,VALID,1011.19,VALID,0,VALID,93.2096,VALID,0.105969,VALID,23.4584,VALID,332,VALID,0.136719,
2010-01-24, 01:14:05,VALID,1011.2,VALID,0,VALID,93.1867,VALID,0.105969,VALID,23.4584,VALID,332,VALID,0,
2010-01-24, 01:15:05,VALID,1011.19,VALID,0,VALID,93.1943,VALID,0.105969,VALID,23.4584,VALID,332,VALID,0,
2010-01-24, 01:16:05,VALID,1011.15,VALID,0,VALID,93.1791,VALID,0.105969,VALID,23.4584,VALID,332,VALID,0,
2010-01-24, 01:17:05,VALID,1011.22,VALID,0,VALID,93.1791,VALID,0.105969,VALID,23.4779,VALID,332,VALID,0,
2010-01-24, 01:18:05,VALID,1011.23,VALID,0,VALID,93.1867,VALID,0.105969,VALID,23.4584,VALID,332,VALID,0,
2010-01-24, 01:19:05,VALID,1011.22,VALID,0,VALID,93.1943,VALID,0,VALID,23.4797,VALID,332,VALID,0,
2010-01-24, 01:20:05,VALID,1011.25,VALID,0,VALID,93.1715,VALID,0,VALID,23.4602,VALID,332,VALID,0,
2010-01-24, 01:21:05,VALID,1011.27,VALID,0,VALID,93.1943,VALID,0.105969,VALID,23.4389,VALID,332,VALID,0.171484,
2010-01-24, 01:22:05,VALID,1011.25,VALID,0,VALID,93.1867,VALID,0,VALID,23.4194,VALID,332,VALID,0.00117188,
2010-01-24, 01:23:05,VALID,1011.26,VALID,0,VALID,93.1638,VALID,0.105969,VALID,23.4194,VALID,333,VALID,0,
2010-01-24, 01:24:05,VALID,1011.29,VALID,0,VALID,93.1638,VALID,0.105969,VALID,23.4389,VALID,333,VALID,0,
2010-01-24, 01:25:05,VALID,1011.32,VALID,0,VALID,93.1715,VALID,0.105969,VALID,23.4,VALID,334,VALID,0,
2010-01-24, 01:26:05,VALID,1011.29,VALID,0,VALID,93.1638,VALID,0.105969,VALID,23.4212,VALID,337,VALID,0.0367187,
2010-01-24, 01:27:05,VALID,1011.28,VALID,0,VALID,93.1867,VALID,0,VALID,23.4017,VALID,337,VALID,0,
2010-01-24, 01:28:05,VALID,1011.26,VALID,0,VALID,93.1867,VALID,0.105969,VALID,23.4017,VALID,343,VALID,0.000390625,
2010-01-24, 01:29:05,VALID,1011.23,VALID,0,VALID,93.1943,VALID,0,VALID,23.3823,VALID,3,VALID,0.151953,
2010-01-24, 01:30:05,VALID,1011.22,VALID,0,VALID,93.1943,VALID,0.105969,VALID,23.3628,VALID,355,VALID,0,
2010-01-24, 01:31:05,VALID,1011.18,VALID,0,VALID,93.1715,VALID,0,VALID,23.3823,VALID,303,VALID,0.509766,
2010-01-24, 01:32:05,VALID,1011.15,VALID,0,VALID,93.1715,VALID,0.105969,VALID,23.361,VALID,295,VALID,0.361719,
2010-01-24, 01:33:05,VALID,1011.17,VALID,0,VALID,93.1562,VALID,0.105969,VALID,23.3805,VALID,312,VALID,0.460156,
2010-01-24, 01:34:05,VALID,1011.19,VALID,0,VALID,93.1638,VALID,0.105969,VALID,23.4017,VALID,318,VALID,0.322656,
2010-01-24, 01:35:05,VALID,1011.17,VALID,0,VALID,93.1562,VALID,0.105969,VALID,23.361,VALID,322,VALID,0.273047,
2010-01-24, 01:36:05,VALID,1011.17,VALID,0,VALID,93.1638,VALID,0.105969,VALID,23.361,VALID,322,VALID,0.0886719,
2010-01-24, 01:37:05,VALID,1011.16,VALID,0,VALID,93.1638,VALID,0.105969,VALID,23.361,VALID,322,VALID,0,
2010-01-24, 01:38:05,VALID,1011.14,VALID,0,VALID,93.1562,VALID,0.105969,VALID,23.3415,VALID,322,VALID,0,
2010-01-24, 01:39:05,VALID,1011.15,VALID,0,VALID,93.1333,VALID,0,VALID,23.3415,VALID,322,VALID,0.046875,
2010-01-24, 01:40:05,VALID,1011.11,VALID,0,VALID,93.141,VALID,0.105969,VALID,23.3415,VALID,322,VALID,0,
2010-01-24, 01:41:05,VALID,1011.09,VALID,0,VALID,93.141,VALID,0.105969,VALID,23.3415,VALID,322,VALID,0,
2010-01-24, 01:42:05,VALID,1011.09,VALID,0,VALID,93.1257,VALID,0.105969,VALID,23.3415,VALID,322,VALID,0,
2010-01-24, 01:43:05,VALID,1011.06,VALID,0,VALID,93.1181,VALID,0.105969,VALID,23.361,VALID,322,VALID,0,
2010-01-24, 01:44:05,VALID,1011.03,VALID,0,VALID,93.1028,VALID,0,VALID,23.361,VALID,322,VALID,0,
2010-01-24, 01:45:05,VALID,1011.01,VALID,0,VALID,93.1257,VALID,0.105969,VALID,23.361,VALID,322,VALID,0,
2010-01-24, 01:46:05,VALID,1010.97,VALID,0,VALID,93.1257,VALID,0.105969,VALID,23.361,VALID,322,VALID,0,
2010-01-24, 01:47:05,VALID,1010.96,VALID,0,VALID,93.1028,VALID,0.211938,VALID,23.361,VALID,322,VALID,0,
2010-01-24, 01:48:05,VALID,1010.95,VALID,0,VALID,93.1181,VALID,0.105969,VALID,23.361,VALID,322,VALID,0,
2010-01-24, 01:49:05,VALID,1010.95,VALID,0,VALID,93.0799,VALID,0.105969,VALID,23.3805,VALID,322,VALID,0,
2010-01-24, 01:50:05,VALID,1010.94,VALID,0,VALID,93.0723,VALID,0.105969,VALID,23.3805,VALID,322,VALID,0,
2010-01-24, 01:51:05,VALID,1010.92,VALID,0,VALID,93.0799,VALID,0.105969,VALID,23.4017,VALID,322,VALID,0,
2010-01-24, 01:52:05,VALID,1010.91,VALID,0,VALID,93.0647,VALID,0.105969,VALID,23.3805,VALID,322,VALID,0,
2010-01-24, 01:53:05,VALID,1010.88,VALID,0,VALID,93.0723,VALID,0.105969,VALID,23.3805,VALID,322,VALID,0.341406,
2010-01-24, 01:54:05,VALID,1010.88,VALID,0,VALID,93.1257,VALID,0.105969,VALID,23.3628,VALID,322,VALID,0.128516,
2010-01-24, 01:55:05,VALID,1010.86,VALID,0,VALID,93.1181,VALID,0.105969,VALID,23.3415,VALID,322,VALID,0,
2010-01-24, 01:56:05,VALID,1010.86,VALID,0,VALID,93.0876,VALID,0.105969,VALID,23.3415,VALID,322,VALID,0,
2010-01-24, 01:57:05,VALID,1010.85,VALID,0,VALID,93.0723,VALID,0.105969,VALID,23.3823,VALID,322,VALID,0,
2010-01-24, 01:58:05,VALID,1010.84,VALID,0,VALID,93.0723,VALID,0.105969,VALID,23.3415,VALID,322,VALID,0,
2010-01-24, 01:59:05,VALID,1010.83,VALID,0,VALID,93.1105,VALID,0,VALID,23.3415,VALID,322,VALID,0,
2010-01-24, 02:00:05,VALID,1010.82,VALID,0,VALID,93.0647,VALID,0.105969,VALID,23.3805,VALID,322,VALID,0,
2010-01-24, 02:01:05,VALID,1010.79,VALID,0,VALID,93.0723,VALID,0.105969,VALID,23.361,VALID,322,VALID,0,
2010-01-24, 02:02:05,VALID,1010.8,VALID,0,VALID,93.0876,VALID,0.105969,VALID,23.361,VALID,322,VALID,0,
2010-01-24, 02:03:05,VALID,1010.82,VALID,0,VALID,93.0418,VALID,0.105969,VALID,23.361,VALID,322,VALID,0,
2010-01-24, 02:04:05,VALID,1010.84,VALID,0,VALID,93.0723,VALID,0,VALID,23.3628,VALID,322,VALID,0,
2010-01-24, 02:05:05,VALID,1010.86,VALID,0,VALID,93.1105,VALID,0.105969,VALID,23.3415,VALID,322,VALID,0.0410156,
2010-01-24, 02:06:05,VALID,1010.84,VALID,0,VALID,93.0876,VALID,0,VALID,23.322,VALID,322,VALID,0,
2010-01-24, 02:07:05,VALID,1010.86,VALID,0,VALID,93.0723,VALID,0.105969,VALID,23.322,VALID,322,VALID,0,
2010-01-24, 02:08:05,VALID,1010.83,VALID,0,VALID,93.0876,VALID,0.105969,VALID,23.322,VALID,322,VALID,0,
2010-01-24, 02:09:05,VALID,1010.81,VALID,0,VALID,93.0799,VALID,0.105969,VALID,23.322,VALID,322,VALID,0,
2010-01-24, 02:10:05,VALID,1010.8,VALID,0,VALID,93.0571,VALID,0,VALID,23.322,VALID,322,VALID,0,
2010-01-24, 02:11:05,VALID,1010.78,VALID,0,VALID,93.0723,VALID,0,VALID,23.322,VALID,322,VALID,0,
2010-01-24, 02:12:05,VALID,1010.77,VALID,0,VALID,93.0494,VALID,0.105969,VALID,23.322,VALID,322,VALID,0,
2010-01-24, 02:13:05,VALID,1010.77,VALID,0,VALID,93.0571,VALID,0,VALID,23.3238,VALID,322,VALID,0,
2010-01-24, 02:14:05,VALID,1010.73,VALID,0,VALID,93.0799,VALID,0,VALID,23.3238,VALID,322,VALID,0,
2010-01-24, 02:15:05,VALID,1010.72,VALID,0,VALID,93.0647,VALID,0,VALID,23.3238,VALID,322,VALID,0,
2010-01-24, 02:16:05,VALID,1010.7,VALID,0,VALID,93.0723,VALID,0.105969,VALID,23.3026,VALID,322,VALID,0,
2010-01-24, 02:17:05,VALID,1010.67,VALID,0,VALID,93.0799,VALID,0,VALID,23.2848,VALID,322,VALID,0,
2010-01-24, 02:18:05,VALID,1010.65,VALID,0,VALID,93.0723,VALID,0,VALID,23.2831,VALID,322,VALID,0,
2010-01-24, 02:19:05,VALID,1010.65,VALID,0,VALID,93.0571,VALID,0,VALID,23.2831,VALID,322,VALID,0,
2010-01-24, 02:20:05,VALID,1010.63,VALID,0,VALID,93.0647,VALID,0.105969,VALID,23.2831,VALID,322,VALID,0,
2010-01-24, 02:21:05,VALID,1010.62,VALID,0,VALID,93.0952,VALID,0.105969,VALID,23.2848,VALID,322,VALID,0,
2010-01-24, 02:22:05,VALID,1010.61,VALID,0,VALID,93.0723,VALID,0.105969,VALID,23.2848,VALID,322,VALID,0.114844,
2010-01-24, 02:23:05,VALID,1010.59,VALID,0,VALID,93.0647,VALID,0,VALID,23.2636,VALID,322,VALID,0,
2010-01-24, 02:24:05,VALID,1010.58,VALID,0,VALID,93.0494,VALID,0,VALID,23.2636,VALID,322,VALID,0,
2010-01-24, 02:25:05,VALID,1010.56,VALID,0,VALID,93.0418,VALID,0,VALID,23.2636,VALID,322,VALID,0,
2010-01-24, 02:26:05,VALID,1010.55,VALID,0,VALID,93.0342,VALID,0.105969,VALID,23.3043,VALID,322,VALID,0,
2010-01-24, 02:27:05,VALID,1010.56,VALID,0,VALID,93.0266,VALID,0,VALID,23.2848,VALID,322,VALID,0,
2010-01-24, 02:28:05,VALID,1010.55,VALID,0,VALID,93.0418,VALID,0.105969,VALID,23.2831,VALID,41,VALID,0.372266,
2010-01-24, 02:29:05,VALID,1010.53,VALID,0,VALID,93.0418,VALID,0,VALID,23.2848,VALID,42,VALID,0.334375,
2010-01-24, 02:30:05,VALID,1010.54,VALID,0,VALID,93.0266,VALID,0.105969,VALID,23.2848,VALID,58,VALID,0.370703,
2010-01-24, 02:31:05,VALID,1010.54,VALID,0,VALID,93.0189,VALID,0,VALID,23.3043,VALID,60,VALID,0,
2010-01-24, 02:32:05,VALID,1010.58,VALID,0,VALID,92.9961,VALID,0,VALID,23.3238,VALID,66,VALID,0,
2010-01-24, 02:33:05,VALID,1010.55,VALID,0,VALID,92.9808,VALID,0,VALID,23.322,VALID,68,VALID,0,
2010-01-24, 02:34:05,VALID,1010.55,VALID,0,VALID,93.0113,VALID,0.105969,VALID,23.3433,VALID,72,VALID,0,
2010-01-24, 02:35:05,VALID,1010.54,VALID,0,VALID,92.9808,VALID,0,VALID,23.322,VALID,72,VALID,0,
2010-01-24, 02:36:05,VALID,1010.56,VALID,0,VALID,93.0037,VALID,0.105969,VALID,23.3433,VALID,71,VALID,0,
2010-01-24, 02:37:05,VALID,1010.54,VALID,0,VALID,93.0418,VALID,0.105969,VALID,23.3026,VALID,62,VALID,0,
2010-01-24, 02:38:05,VALID,1010.56,VALID,0,VALID,93.0494,VALID,0,VALID,23.3026,VALID,62,VALID,0,
2010-01-24, 02:39:05,VALID,1010.54,VALID,0,VALID,93.0266,VALID,0,VALID,23.3433,VALID,62,VALID,0,
2010-01-24, 02:40:05,VALID,1010.54,VALID,0,VALID,93.0266,VALID,0.105969,VALID,23.3026,VALID,62,VALID,0,
2010-01-24, 02:41:05,VALID,1010.53,VALID,0,VALID,93.0266,VALID,0.105969,VALID,23.3238,VALID,62,VALID,0,
2010-01-24, 02:42:05,VALID,1010.55,VALID,0,VALID,93.0113,VALID,0.105969,VALID,23.2831,VALID,62,VALID,0,
2010-01-24, 02:43:05,VALID,1010.53,VALID,0,VALID,93.0113,VALID,0,VALID,23.2831,VALID,62,VALID,0,
2010-01-24, 02:44:05,VALID,1010.57,VALID,0,VALID,93.0037,VALID,0.105969,VALID,23.3026,VALID,42,VALID,0,
2010-01-24, 02:45:05,VALID,1010.57,VALID,0,VALID,93.0342,VALID,0.105969,VALID,23.2831,VALID,42,VALID,0,
2010-01-24, 02:46:05,VALID,1010.55,VALID,0,VALID,93.0266,VALID,0,VALID,23.3043,VALID,42,VALID,0,
2010-01-24, 02:47:05,VALID,1010.57,VALID,0,VALID,93.0189,VALID,0,VALID,23.2831,VALID,42,VALID,0,
2010-01-24, 02:48:05,VALID,1010.56,VALID,0,VALID,93.0571,VALID,0,VALID,23.3043,VALID,42,VALID,0,
2010-01-24, 02:49:05,VALID,1010.58,VALID,0,VALID,93.0342,VALID,0,VALID,23.2848,VALID,42,VALID,0,
2010-01-24, 02:50:05,VALID,1010.56,VALID,0,VALID,93.0418,VALID,0.105969,VALID,23.2636,VALID,340,VALID,0,
2010-01-24, 02:51:05,VALID,1010.57,VALID,0,VALID,93.0037,VALID,0.105969,VALID,23.3043,VALID,340,VALID,0,
2010-01-24, 02:52:05,VALID,1010.58,VALID,0,VALID,93.0113,VALID,0,VALID,23.2831,VALID,340,VALID,0,
2010-01-24, 02:53:05,VALID,1010.59,VALID,0,VALID,92.9656,VALID,0.105969,VALID,23.3238,VALID,333,VALID,0,
2010-01-24, 02:54:05,VALID,1010.58,VALID,0,VALID,92.9732,VALID,0,VALID,23.3238,VALID,333,VALID,0,
2010-01-24, 02:55:05,VALID,1010.61,VALID,0,VALID,92.9656,VALID,0,VALID,23.3238,VALID,333,VALID,0,
2010-01-24, 02:56:05,VALID,1010.61,VALID,0,VALID,92.9732,VALID,0,VALID,23.3026,VALID,333,VALID,0,
2010-01-24, 02:57:05,VALID,1010.64,VALID,0,VALID,92.9961,VALID,0.105969,VALID,23.3026,VALID,333,VALID,0,
2010-01-24, 02:58:05,VALID,1010.63,VALID,0,VALID,93.0037,VALID,0,VALID,23.3043,VALID,333,VALID,0,
2010-01-24, 02:59:05,VALID,1010.65,VALID,0,VALID,93.0266,VALID,0.105969,VALID,23.3043,VALID,333,VALID,0,
2010-01-24, 03:00:05,VALID,1010.64,VALID,0,VALID,93.0189,VALID,0,VALID,23.2636,VALID,333,VALID,0,
2010-01-24, 03:01:05,VALID,1010.65,VALID,0,VALID,93.0189,VALID,0.105969,VALID,23.2831,VALID,333,VALID,0,
2010-01-24, 03:02:05,VALID,1010.63,VALID,0,VALID,93.0113,VALID,0,VALID,23.2636,VALID,333,VALID,0,
2010-01-24, 03:03:05,VALID,1010.66,VALID,0,VALID,93.0037,VALID,0,VALID,23.2848,VALID,333,VALID,0,
2010-01-24, 03:04:05,VALID,1010.66,VALID,0,VALID,92.9732,VALID,0,VALID,23.2636,VALID,333,VALID,0,
2010-01-24, 03:05:05,VALID,1010.65,VALID,0,VALID,92.9808,VALID,0,VALID,23.2848,VALID,333,VALID,0,
2010-01-24, 03:06:05,VALID,1010.66,VALID,0,VALID,92.9732,VALID,0.105969,VALID,23.2831,VALID,333,VALID,0,
2010-01-24, 03:07:05,VALID,1010.66,VALID,0,VALID,92.9656,VALID,0,VALID,23.2636,VALID,333,VALID,0,
2010-01-24, 03:08:05,VALID,1010.71,VALID,0,VALID,93.0113,VALID,0,VALID,23.2654,VALID,333,VALID,0,
2010-01-24, 03:09:05,VALID,1010.72,VALID,0,VALID,93.0189,VALID,0,VALID,23.2441,VALID,333,VALID,0,
2010-01-24, 03:10:05,VALID,1010.73,VALID,0,VALID,92.9884,VALID,0,VALID,23.2654,VALID,333,VALID,0,
2010-01-24, 03:11:05,VALID,1010.75,VALID,0,VALID,92.9732,VALID,0.105969,VALID,23.2848,VALID,333,VALID,0,
2010-01-24, 03:12:05,VALID,1010.76,VALID,0,VALID,92.9732,VALID,0.105969,VALID,23.2441,VALID,333,VALID,0,
2010-01-24, 03:13:05,VALID,1010.75,VALID,0,VALID,92.9427,VALID,0,VALID,23.2848,VALID,333,VALID,0,
2010-01-24, 03:14:05,VALID,1010.75,VALID,0,VALID,92.9351,VALID,0,VALID,23.2866,VALID,333,VALID,0,
2010-01-24, 03:15:05,VALID,1010.75,VALID,0,VALID,92.9427,VALID,0,VALID,23.2848,VALID,333,VALID,0,
2010-01-24, 03:16:05,VALID,1010.75,VALID,0,VALID,92.9579,VALID,0,VALID,23.2654,VALID,333,VALID,0,
2010-01-24, 03:17:05,VALID,1010.75,VALID,0,VALID,92.9503,VALID,0,VALID,23.2459,VALID,333,VALID,0,
2010-01-24, 03:18:05,VALID,1010.76,VALID,0,VALID,92.9732,VALID,0,VALID,23.2476,VALID,333,VALID,0,
2010-01-24, 03:19:05,VALID,1010.75,VALID,0,VALID,92.9808,VALID,0,VALID,23.2282,VALID,333,VALID,0,
2010-01-24, 03:20:05,VALID,1010.75,VALID,0,VALID,92.9579,VALID,0,VALID,23.2476,VALID,333,VALID,0,
2010-01-24, 03:21:05,VALID,1010.75,VALID,0,VALID,92.9732,VALID,0,VALID,23.2264,VALID,333,VALID,0,
2010-01-24, 03:22:05,VALID,1010.72,VALID,0,VALID,92.9808,VALID,0,VALID,23.2476,VALID,333,VALID,0,
2010-01-24, 03:23:05,VALID,1010.74,VALID,0,VALID,92.9503,VALID,0,VALID,23.2264,VALID,333,VALID,0,
2010-01-24, 03:24:05,VALID,1010.72,VALID,0,VALID,92.9579,VALID,0,VALID,23.2264,VALID,333,VALID,0,
2010-01-24, 03:25:05,VALID,1010.73,VALID,0,VALID,92.9274,VALID,0,VALID,23.2264,VALID,333,VALID,0,
2010-01-24, 03:26:05,VALID,1010.73,VALID,0,VALID,92.9351,VALID,0,VALID,23.2459,VALID,333,VALID,0,
2010-01-24, 03:27:05,VALID,1010.72,VALID,0,VALID,92.9427,VALID,0,VALID,23.2264,VALID,333,VALID,0,
2010-01-24, 03:28:05,VALID,1010.72,VALID,0,VALID,92.9427,VALID,0,VALID,23.2264,VALID,333,VALID,0,
2010-01-24, 03:29:05,VALID,1010.71,VALID,0,VALID,92.9427,VALID,0,VALID,23.2282,VALID,333,VALID,0,
2010-01-24, 03:30:05,VALID,1010.75,VALID,0,VALID,92.9427,VALID,0,VALID,23.2282,VALID,333,VALID,0,
2010-01-24, 03:31:05,VALID,1010.74,VALID,0,VALID,92.9579,VALID,0,VALID,23.2069,VALID,333,VALID,0,
2010-01-24, 03:32:04,VALID,1010.74,VALID,0,VALID,92.9503,VALID,0,VALID,23.2069,VALID,333,VALID,0,
2010-01-24, 03:33:04,VALID,1010.75,VALID,0,VALID,92.9503,VALID,0,VALID,23.2282,VALID,333,VALID,0,
2010-01-24, 03:34:04,VALID,1010.76,VALID,0,VALID,92.9656,VALID,0,VALID,23.2069,VALID,333,VALID,0,
2010-01-24, 03:35:04,VALID,1010.73,VALID,0,VALID,92.9427,VALID,0,VALID,23.1874,VALID,333,VALID,0,
2010-01-24, 03:36:04,VALID,1010.72,VALID,0,VALID,92.9503,VALID,0,VALID,23.1892,VALID,333,VALID,0,
2010-01-24, 03:37:04,VALID,1010.69,VALID,0,VALID,92.9656,VALID,0,VALID,23.1874,VALID,333,VALID,0,
2010-01-24, 03:38:04,VALID,1010.68,VALID,0,VALID,92.9656,VALID,0,VALID,23.1892,VALID,333,VALID,0,
2010-01-24, 03:39:04,VALID,1010.67,VALID,0,VALID,92.9503,VALID,0,VALID,23.1485,VALID,333,VALID,0,
2010-01-24, 03:40:04,VALID,1010.67,VALID,0,VALID,92.9656,VALID,0,VALID,23.1697,VALID,333,VALID,0,
2010-01-24, 03:41:04,VALID,1010.68,VALID,0,VALID,92.9732,VALID,0,VALID,23.1485,VALID,333,VALID,0,
2010-01-24, 03:42:04,VALID,1010.65,VALID,0,VALID,92.9808,VALID,0,VALID,23.129,VALID,333,VALID,0,
2010-01-24, 03:43:04,VALID,1010.68,VALID,0,VALID,92.9656,VALID,0,VALID,23.1502,VALID,333,VALID,0,
2010-01-24, 03:44:04,VALID,1010.66,VALID,0,VALID,92.9579,VALID,0,VALID,23.1095,VALID,333,VALID,0,
2010-01-24, 03:45:04,VALID,1010.64,VALID,0,VALID,92.9579,VALID,0,VALID,23.1307,VALID,333,VALID,0,
2010-01-24, 03:46:04,VALID,1010.68,VALID,0,VALID,92.9351,VALID,0,VALID,23.1095,VALID,333,VALID,0,
2010-01-24, 03:47:04,VALID,1010.67,VALID,0,VALID,92.9427,VALID,0,VALID,23.129,VALID,333,VALID,0,
2010-01-24, 03:48:04,VALID,1010.68,VALID,0,VALID,92.9503,VALID,0,VALID,23.129,VALID,333,VALID,0,